Location: �chenoz-la-M�line
(47.6009°N, 6.1354°E)
Time: 12:38:42
(UTC+00:00)

Cosmos 1125 Rocket - Pass Details

Date: 27 January 2021
Orbit: 756 x 781 km, 74.0° (Epoch: 02 March)

Event Time Altitude Azimuth Distance (km) Brightness Sun altitude
Exits shadow 05:01:52 16° 340° (NNW) 1,952 5.4 -21.2°
Maximum altitude 05:06:11 83° 67° (ENE) 792 3.5 -20.5°
Drops below altitude 10° 05:11:30 10° 156° (SSE) 2,329 6.4 -19.6°
Sets 05:13:53 0° 157° (SSE) 3,253 7.2 -19.2°
